Location: Blanot
(47.1713°N, 4.2340°E)
Time: 04:39:19
(UTC+00:00)

Cosmos 1666 Rocket - Pass Details

Date: 14 July 2020
Orbit: 603 x 634 km, 82.5° (Epoch: 06 August)

Event Time Altitude Azimuth Distance (km) Brightness Sun altitude
Exits shadow 00:23:49 46° 235° (SW) 829 3.9 -20.7°
Maximum altitude 00:24:46 57° 282° (WNW) 726 3.8 -20.7°
Drops below altitude 10° 00:29:04 10° 2° (N) 1,977 7.3 -20.6°
Sets 00:31:20 0° 6° (N) 2,882 8.6 -20.5°
